1998-067KR

Last updated on Wed Jan 18 2017 00:15:06 GMT+0000 (Coordinated Universal Time)

1 41895U 98067KR 17017.16958023 .00008624 00000-0 13267-3 0 9999 2 41895 51.6443 70.9870 0006171 104.7835 255.3838 15.55086608 4446

Satellite not in orbit

1998-067KR